Showing default

GONETS M 13 (M23), 40554

Orbit data source: Space-Track

GONETS M 13 (M23), 40554 is a payload satellite owned by Gonets (CIS) in LEO that was launched on Tue, 31 Mar 2015 UTC via an ROKOT launch vehicle from the Plesetsk Missile And Space Complex (PKMTR). Payload-class satellites include a variety of spacecraft equipped with specific instruments for various scientific and technological missions. These include communications satellites like Starlink; space stations such as the ISS; scientific satellites like the Hubble; Earth observation satellites from companies like Planet Labs, Umbra, and HawkEye 360; GPS; miniature CubeSats for education and research; and military/defense satellites.

Loading next visibility...
Identifier
40554, 2015-020C
Orbit
LEO
Last TLE update
8 hours ago
Origin
Manufacturer
Resehetnev ISS
Mission
Operational Civil Communications
Bus & Motor
STRELA-3M, Unknown motor
Mass
225 kg wet, 225 kg dry
Launch date (UTC)
2015-03-31 (10 years ago)
Launch vehicle
ROKOT
Launch site
Plesetsk Missile And Space Complex (PKMTR)
Object type
Payload
Rocket body
Debris
Shape & HBR
Cyl + 1 Ant, 7 m
Radar Cross Section
1.798 m², Large (>1 m²)

Expand to show TLE details & history

TLE from 8 hours ago
0 GONETS M 13 (M23)
1 40554U 15020C   25181.90322260  .00000031  00000-0  15569-3 0  9990
2 40554  82.4841 249.5891 0013455  25.6974 334.4771 12.42895162465066
Epoch: 2025-06-30T21:40Z
TLE epoch observation values (Epoch: 2025-06-30T21:40:38.432Z)
Latitude
-0.00008°
Longitude
5.2226°
Altitude
1,487.496 km
Speed
7.124 km/s
True Right ascension
16h 38m 21s
True Declination
0° 00' 00"
Sunlit
Object was in full shadow at epoch
Visualization orbit readout
Latitude
82.36182°
Longitude
106.77378°
Altitude
1,503.683 km
Speed
7.121 km/s
Apparent Right ascension
04h 42m 41s
Apparent Declination
36° 45' 32"
Sunlit
Object is in daylight
Visualization observer readout
Local Sidereal Time
17:31:22
Azimuth
9.965° NNE
Elevation
-12.513°
Doppler factor
1
Orbital elements
Apogee altitude
1,502.295 km
Perigee altitude
1,481.117 km
Semi-major axis
7,869.843 km
Eccentricity
0.00135
Inclination
82.4841°
RAAN
249.5891°
Arg. of periapsis
25.6974°
True anomaly
Unknown
Mean anomaly
334.4771°
Eccentric anomaly
Unknown
Mean motion
3.10881 °/min
Orbital period
115.8 mins
BSTAR
0.00015569
Loading maneuver chart data...
Loading SW <> Apogee altitude chart data...
Loading historical data...
Loading historical data...
Loading historical data...
Loading historical data...
Loading historical data...
Loading historical data...
Loading historical data...

GONETS M 13 (M23) Visibility forecast

Observer location: undefined°, undefined°

Span
Click to sort rows by Start time (UTC) header in descending order
Start Az.
Max El. time (UTC)
Max El. Az.
Max El.
End time (UTC)
End Az.
8 mins2025-07-01 07:31:40.765Z270.654° WNW2025-07-01 07:35:40.765Z299.719° NW14.615°2025-07-01 07:39:40.765Z328.786° NNW
15 mins2025-07-01 15:41:40.765Z6.408° NNE2025-07-01 15:48:40.765Z85.137° E38.053°2025-07-01 15:56:40.765Z151.301° SSE
13 mins2025-07-01 17:38:40.765Z328.884° NNW2025-07-01 17:44:40.765Z275.672° WNW28.888°2025-07-01 17:51:40.765Z217.837° SW
15 mins2025-07-02 04:40:40.765Z166.721° S2025-07-02 04:47:40.765Z102.928° ESE40.974°2025-07-02 04:55:40.765Z15.947° NNE
|